Flight Information

DEPARTURE
NORTH BEND, OR
Elevation:
17
Runways:
13/31 - 4470x150 - ASPH-G
5/23 - 5980x150 - ASPH-G
Ground:
127.1
Tower:
NORTH BEND TOWER 118.45
DESTINATION
,
Elevation:
TPA:
1000 (est.)


6847.4 NM65° True-18° Var46° HDG

Flight Plan:
(click to file on line)

1. Type
2. Aircraft Identification
3. Aircraft Type / Special Equipment
4. True Airspeed
kts
5. Departure Airport
(ICAO code)
6. Arriving Airport
(ICAO code)
7. Cruising Altitude
ft
8. Alternate Airport
(ICAO code)
9. Route of Flight
10. Remarks


00:00:00 Departure ATIS: Destination ATIS:

Clearance Limit:
Route:
Altitude: Expect in minutes
Frequency:
Transponder: (7500 Hijack / 7600 Lost Comms / 7700 Emergency)


KOTH 211756Z 14003KT 10SM CLR 24/12 A3005 RMK AO2 SLP176 T02440117 10244 20106 51001
Time: 2021-09-21T17:56:00Z
1632248652
Winds: 140 @ 3 kts
Visibility: 10.0 sm
Clouds (AGL): CLR
Temperature: 24.4 C
Dew Point: 11.7 C
Pressure: 30.050198 in Hgbr


Notes:

Data extracted from FAA Digital Chart Supplement. Effective: 0901Z Thursday, AUG 12, 2021 to 0901Z Thursday, OCT 7, 2021
Current ATIS data is provided courtisy of PilotEdge.